Flag for Estonia Weather past 2 weeks in Tartu, Estonia

Now
34 °F

Snow flurries. Low clouds.


Feels Like: 26 °F
Forecast: 38 / 46 °F
Wind: 10 mph from Southwest

Location: Tartu/Ulenurme

Current Time: Mar 7, 2015 at 2:44:43 AM

Latest Report: Mar 7, 2015 at 1:50 AM


Visibility: N/A

Pressure: 30.24 "Hg

Humidity: 87%

Dew point: 30 °F

Location of TartuLocation

Historic Weather in Tartu — Graph

°F

Tartu temperature yesterday

Maximum temperature yesterday: 41 °F (at 12:50 PM)
Minimum temperature yesterday: 25 °F (at 2:50 AM)
Average temperature yesterday: 33 °F

Past Weeks' High & Low Weather Summary

 TemperatureHumidityPressure
High41 °F (Feb 22, 1:50 PM)100% (Feb 25, 9:50 AM)30.36 "Hg (Feb 25, 9:50 AM)
Low25 °F (Feb 26, 4:50 AM)49% (Mar 6, 3:50 PM)29.39 "Hg (Feb 22, 3:50 AM)
Average35 °F84%29.86 "Hg
* Reported Feb 20 12:50 AM — Mar 7 12:50 AM, Tartu, Weather by CustomWeather, © 2015

Note: Actual official high and low records may vary slightly from our data, if they occured in-between our weather recording intervals... More about our weather records

Advertising

Tartu weather history for previous 24 hours

 ConditionsComfort  
Time TempWeatherWind HumidityBarometerVisibility
12:50 AM
Sat, Mar 7
34 °FLight rain. Overcast.13 mph87%30.24 "HgN/A
11:50 PM
Fri, Mar 6
34 °FOvercast.14 mph87%30.24 "HgN/A
10:50 PM34 °FMostly cloudy.15 mph87%30.24 "HgN/A
9:50 PM34 °FSleet. Partly cloudy.13 mph87%30.24 "Hg6 mi
8:50 PM34 °FLight snow. Overcast.13 mph87%30.24 "Hg4 mi
7:50 PM37 °FPassing clouds.14 mph70%30.24 "HgN/A
6:50 PM37 °FOvercast.8 mph65%30.24 "HgN/A
5:50 PM39 °FSunny.9 mph56%30.27 "Hg10 mi
4:50 PM39 °FSunny.14 mph56%30.27 "Hg10 mi
3:50 PM41 °FSunny.14 mph49%30.27 "Hg10 mi
2:50 PM41 °FPassing clouds.13 mph53%30.27 "HgN/A
1:50 PM41 °FPassing clouds.8 mph53%30.27 "HgN/A
12:50 PM41 °FPassing clouds.13 mph57%30.30 "HgN/A
11:50 AM39 °FPassing clouds.10 mph61%30.30 "HgN/A
10:50 AM36 °FPassing clouds.10 mph70%30.33 "HgN/A
9:50 AM34 °FSunny.8 mph81%30.33 "Hg10 mi
8:50 AM32 °FPassing clouds.7 mph87%30.33 "HgN/A
7:50 AM27 °FChilly.5 mph93%30.33 "HgN/A
6:50 AM25 °FCold.1 mph93%30.36 "HgN/A
5:50 AM25 °FCold.1 mph93%30.36 "HgN/A
4:50 AM25 °FCold.No wind86%30.36 "HgN/A
3:50 AM25 °FIce fog.No wind93%30.36 "HgN/A
2:50 AM25 °FCold.2 mph86%30.36 "HgN/A
Weather by CustomWeather, © 2015

See weather overviewHow to use our weather pages